Regional Weather Roundup
Issued by NWS

Home | Current Version | Previous Version | Graphics & Text | Print | Product List | Glossary On
Versions: 1 2 3 4 5 6 7 8 9 10 11 12 13 14 15 16 17 18 19 20 21 22 23 24 25 26 27 28 29 30 31 32 33 34 35 36 37 38 39 40 41 42 43 44 45 46 47 48 49 50
000
ASUS43 KLOT 072021
RWRIL

ILLINOIS REGIONAL WEATHER ROUNDUP
NATIONAL WEATHER SERVICE CHICAGO/ROMEOVILLE IL
300 PM CDT TUE JUL 07 2015

NOTE: "FAIR" INDICATES FEW OR NO CLOUDS BELOW 12,000 FEET WITH NO
SIGNIFICANT WEATHER AND/OR OBSTRUCTIONS TO VISIBILITY.

* THESE STATIONS ARE NOT UNDER NWS QUALITY CONTROL. THEY ALSO MAY NOT
  REPORT WEATHER SUCH AS PRECIPITATION OR FOG.

ILZ001-002-007-009-015-016-024-072100-
NORTHWEST ILLINOIS

CITY           SKY/WX    TMP DP  RH WIND       PRES   REMARKS
MOLINE         PTSUNNY   73  56  54 N8        30.04R HAZE
STERLING*      CLOUDY    72  57  60 NE10      30.04S
SAVANNA*       CLOUDY    70  54  55 N10G16    30.05R
$$

ILZ003-004-008-010-011-017-018-072100-
NORTH CENTRAL ILLINOIS

CITY           SKY/WX    TMP DP  RH WIND       PRES   REMARKS
ROCKFORD       CLOUDY    72  51  47 NE14      30.05S
FREEPORT*      PTSUNNY   68  54  62 NE7G17    30.07R
ROCHELLE*      CLOUDY    69  56  62 N12G17    30.05R
DE KALB*       CLOUDY    66  53  64 N8G16     30.05R
PERU*          PTSUNNY   72  56  58 NE15      30.03S
$$

ILZ005-006-012>014-019>023-072100-
NORTHEAST ILLINOIS

CITY           SKY/WX    TMP DP  RH WIND       PRES   REMARKS
CHICAGO-OHARE  PTSUNNY   67  47  48 NE16G23   30.04R
CHICAGO-MIDWAY MOSUNNY   68  44  42 N22       30.04R
AURORA         CLOUDY    69  53  56 N12       30.03R
LANSING*       SUNNY     64  44  48 NE18G29   30.04S
JOLIET*        MOSUNNY   71  54  54 NE8G16    30.03R
WAUKEGAN       SUNNY     63  47  55 NE17G25   30.04R
DUPAGE AIRPORT CLOUDY    67  49  52 NE12      30.03R
KANKAKEE*      PTSUNNY   67  52  57 N15G25    30.04R
WHEELING       SUNNY     65  46  50 NE14G24   30.06R
MORRIS*        CLOUDY    70  53  55 E7        30.01R
ROMEOVILLE*    SUNNY     69  50  52 NE14G23   30.04R
NORTHERLY ISL    N/A     63  51  65 N12         N/A
$$

LMZ740>746-072100-
SOUTHERN LAKE MICHIGAN

STATION/POSITION SKY/WX   TEMP    WIND        PRES    VSBY  WAVE
                          AIR SEA DIR/SP/G                  HT/PER
                          (F)     (DEG/KT/KT) (MB)    (MI)  (FT/S)
HARRISON CRIB              58      20/ 20/ 23   N/A
BURNHAM HARBOR             63      20/  9/ 18   N/A
CALUMET HARBOR             62     360/ 13/ 16   N/A
BURNS HARBOR               59      10/ 20/ 24 1017.3
MICHIGAN CITY              60     350/ 24/ 26   N/A
MICHIGAN CITY 6N           60 65   20/ 17/ 23   N/A           8/ 7
ST. JOSEPH                 60 64   30/ 21/ 25   N/A           8/ 2
$$

ILZ025>027-034>036-040-047-049-050-058-095>099-072100-
WEST-CENTRAL ILLINOIS

CITY           SKY/WX    TMP DP  RH WIND       PRES   REMARKS
QUINCY         PTSUNNY   73  61  65 NE12      30.03F HAZE
GALESBURG*     CLOUDY    71  58  64 N10       30.04R HAZE
MACOMB*        PTSUNNY   73  60  65 N8        30.05S HAZE
PITTSFIELD*    CLOUDY    67  62  85 N7        30.04S HAZE
$$

ILZ028>032-037-038-041>044-048-051>054-059>061-072100-
CENTRAL ILLINOIS

CITY           SKY/WX    TMP DP  RH WIND       PRES   REMARKS
PONTIAC        PTSUNNY   71  59  65 NE13      30.03S
BLOOMINGTON    CLOUDY    71  60  68 NE14      30.03S
DECATUR        CLOUDY    66  60  81 N12       30.02S
PEORIA         PTSUNNY   72  60  66 NE6       30.03S
SPRINGFIELD    CLOUDY    70  61  73 NE15      30.03R
TAYLORVILLE    CLOUDY    63  61  94 N12       30.02S FOG
$$

ILZ033-039-045-046-055>057-062-063-072100-
EAST-CENTRAL ILLINOIS

CITY           SKY/WX    TMP DP  RH WIND       PRES   REMARKS
CHAMPAIGN      CLOUDY    65  60  84 N8        30.01R
RANTOUL*       CLOUDY    70  56  61 N18G24    30.01R
MATTOON        CLOUDY    64  61  90 N14       29.99R
PARIS*         CLOUDY    65  63  92 N6        29.99R
$$

ILZ079-100>102-072100-
SOUTHWEST ILLINOIS

CITY           SKY/WX    TMP DP  RH WIND       PRES   REMARKS
ALTON          CLOUDY    70 N/A N/A N9        30.00S
BELLEVILLE     CLOUDY    72  72 100 VRB6      29.97S
CAHOKIA*       CLOUDY    71  67  87 N10       29.99S
SPARTA*        HVY RAIN  76  73  90 CALM      29.97S
$$

ILZ064>066-069>071-074>076-080>082-084>086-088>090-092>094-072100-
SOUTH-CENTRAL ILLINOIS

CITY           SKY/WX    TMP DP  RH WIND       PRES   REMARKS
CARBONDALE     CLOUDY    77  74  90 SW8       29.97S
EFFINGHAM*     DRIZZLE   70  66  89 NW10      29.99R
MARION         CLOUDY    79  75  89 SW12      29.98S HX  82
MT. VERNON     CLOUDY    75  70  83 SW6       29.97S
CENTRALIA*     LGT RAIN  74  71  88 NW3       29.97S
SALEM*         CLOUDY    78  71  81 NW7       29.97R HX  80
$$

ILZ067-068-072-073-078-083-087-091-072100-
SOUTHEAST ILLINOIS

CITY           SKY/WX    TMP DP  RH WIND       PRES   REMARKS
LAWRENCEVILLE  LGT RAIN  78  73  84 SW14      29.95R HX  81
FLORA*         CLOUDY    80  71  75 W7        29.96S HX  83
FAIRFIELD*     DRIZZLE   77  73  88 SW5       29.95S
HARRISBURG*    LGT RAIN  78  76  95 SW10      29.99R HX  80
ROBINSON*      LGT RAIN  74  73  95 W7        29.95S
CARMI*         RAIN      75  70  83 S6        29.97S
$$

ABBREVIATIONS USED IN REMARKS
   TC - TEMPERATURE IN CELSIUS
  WCI - WIND CHILL INDEX
   HX - HEAT INDEX
  VSB - VISIBILITY
$$




USA.gov is the U.S. government's official web portal to all federal, state and local government web resources and services.